[[{"header":{"parameterUnit":"m.s-1","parameterCategory":1,"la1":30.2992,"la2":30.254,"lo1":-89.0895,"lo2":-89.0443,"dy":0.0025,"dx":0.0025,"nx":19,"ny":19,"refTime":"2026-04-30T09:00:00:Z","depth":0,"parameterNumber":2,"parameterNumberName":"U-component_of_WINDS"},"data":[0,0,0,-4.9304,-4.9308,-4.9432,-4.9432,-4.9626,-4.9628,0,0,0,0,0,0,0,0,0,0,0,-4.9289,-4.9291,-4.9304,-4.9308,-4.9432,-4.9432,-4.9626,-4.9628,0,0,0,0,0,0,0,0,0,0,0,-4.9288,-4.929,-4.9293,-4.9308,-4.9432,-4.9432,-4.9625,-4.9519,0,0,0,0,0,0,0,0,0,0,-4.9392,-4.9399,-4.929,-4.9293,-4.9309,-4.9432,-4.9432,-4.9513,-4.9526,-4.9585,0,-4.9643,0,-4.9639,-4.9643,-4.9644,0,0,0,-4.9292,-4.9389,-4.9403,-4.9293,-4.9311,-4.9432,-4.9371,-4.952,-4.9534,-4.9602,-4.9646,-4.9652,-4.9642,-4.9645,-4.9646,-5.004,-5.0042,0,0,-4.9285,-4.9323,-4.9394,-4.9413,-4.9396,-4.9368,-4.9376,-4.9528,-4.9579,-4.9646,-4.9656,-4.9645,-4.9646,-4.9648,-5.0037,-5.004,0,0,0,-4.9276,-4.9319,-4.9328,-4.9406,-4.9426,-4.9372,-4.9381,-4.9572,-4.9571,-4.9658,-4.9648,-4.9648,-4.965,-5.0034,-5.0038,-5.0203,0,0,0,-4.9271,-4.9313,-4.9326,-4.9351,-4.9424,-4.9501,-4.9422,-4.9561,-4.9577,-4.9647,-4.9648,-4.9653,-5.0031,-5.0036,-5.0192,-5.0276,0,0,0,-4.9274,-4.9313,-4.9339,-4.9352,-4.9407,-4.9497,-4.9505,-4.9564,-4.9572,-4.9644,-4.9653,-5.0029,-5.0035,-5.0183,-5.026,-5.0391,0,0,0,-4.9287,-4.9484,-4.9342,-4.9557,-4.9406,-4.9598,-4.9504,-4.9644,-4.9726,-4.9649,-5.0032,-5.0038,-5.018,-5.025,-5.0381,-5.0509,-5.0565,0,0,-4.9556,-4.9518,-4.9641,-4.9518,-4.9744,-4.9576,-4.9826,-4.9865,-4.9837,-4.9974,-4.9983,-5.0196,-5.0258,-5.0389,-5.0867,-5.0912,0,0,0,-4.9739,-4.9829,-4.9881,-4.996,-4.9994,-5.003,-5.0027,-5.0041,-5.0155,-4.9915,-5.0277,-5.0313,-5.0388,-5.0447,-5.0486,-5.0548,-5.0067,-5.0066,-5.0065,-5.0176,-5.0129,-5.0331,-5.03,-5.0378,-5.0371,-5.043,-5.0448,-5.0379,-5.0465,-5.0506,-5.0802,-5.0873,-5.0901,-5.0967,-5.0568,-5.0569,-5.0569,-5.057,-5.0567,-5.0687,-5.0589,-5.0749,-5.0699,-5.0833,-5.0834,-5.078,-5.0898,-5.0767,-5.083,-5.0693,-5.0952,-5.1007,-5.0582,-5.058,-5.0578,-5.0577,-5.0576,-5.085,-5.0899,-5.0912,-5.1022,-5.1111,-5.1071,-5.1189,-5.1138,-5.1091,-5.1153,-5.1191,-5.1189,-5.118,-5.1175,-5.1176,-5.1177,-5.1178,-5.1178,-5.1179,-5.1138,-5.1148,-5.1253,-5.1305,-5.1349,-5.14,-5.1394,-5.1436,-5.147,-5.1423,-5.1423,-5.1346,-5.0986,-5.0897,-5.1195,-5.1192,-5.119,-5.1188,-5.1187,-5.1556,-5.1453,-5.1616,-5.166,-5.1716,-5.1808,-5.174,-5.183,-5.1857,-5.1917,-5.1824,-5.1566,-5.1523,-5.1492,-5.1419,-5.1833,-5.1833,-5.1833,-5.1833,-5.1795,-5.1767,-5.1922,-5.1996,-5.2062,-5.2017,-5.2203,-5.22,-5.2181,-5.2195,-5.2127,-5.2024,-5.1995,-5.1969,-5.1928,-5.1859,-5.2376,-5.2377,-5.2377,-5.205,-5.2026,-5.2194,-5.2174,-5.2213,-5.2249,-5.2422,-5.251,-5.2467,-5.2398,-5.2205,-5.2182,-5.2015,-5.1964,-5.1893,-5.183,-5.1702,0,0]},{"header":{"parameterUnit":"m.s-1","parameterCategory":1,"la1":30.2992,"la2":30.254,"lo1":-89.0895,"lo2":-89.0443,"dy":0.0025,"dx":0.0025,"nx":19,"ny":19,"refTime":"2026-04-30T09:00:00:Z","depth":0,"parameterNumber":3,"parameterNumberName":"V-component_of_WINDS"},"data":[0,0,0,-3.8346,-3.8345,-3.831,-3.831,-3.8281,-3.8281,0,0,0,0,0,0,0,0,0,0,0,-3.8368,-3.8368,-3.8346,-3.8345,-3.831,-3.831,-3.8281,-3.8281,0,0,0,0,0,0,0,0,0,0,0,-3.8368,-3.8368,-3.8368,-3.8345,-3.831,-3.831,-3.8281,-3.8302,0,0,0,0,0,0,0,0,0,0,-3.8333,-3.8365,-3.8368,-3.8368,-3.8345,-3.831,-3.831,-3.8302,-3.8301,-3.8305,0,-3.8312,0,-3.8296,-3.828,-3.828,0,0,0,-3.8337,-3.8367,-3.8347,-3.8368,-3.8345,-3.831,-3.8324,-3.8301,-3.8299,-3.8302,-3.8312,-3.831,-3.8296,-3.828,-3.828,-3.8334,-3.8334,0,0,-3.8339,-3.8367,-3.8348,-3.8346,-3.8353,-3.8325,-3.8323,-3.83,-3.8312,-3.8312,-3.8309,-3.8296,-3.828,-3.828,-3.8333,-3.8334,0,0,0,-3.835,-3.8369,-3.8349,-3.8348,-3.834,-3.8324,-3.8321,-3.8313,-3.8304,-3.8309,-3.8295,-3.828,-3.828,-3.8332,-3.8333,-3.8392,0,0,0,-3.8351,-3.8376,-3.8351,-3.8368,-3.8341,-3.8326,-3.8336,-3.8305,-3.8302,-3.8295,-3.828,-3.828,-3.8332,-3.8333,-3.8389,-3.8415,0,0,0,-3.8366,-3.8377,-3.8376,-3.837,-3.8355,-3.8326,-3.8315,-3.8304,-3.8294,-3.828,-3.828,-3.8331,-3.8333,-3.8386,-3.841,-3.8436,0,0,0,-3.8391,-3.843,-3.8378,-3.8416,-3.8356,-3.8363,-3.8315,-3.8319,-3.8315,-3.828,-3.8332,-3.8333,-3.8385,-3.8407,-3.8433,-3.8461,-3.8476,0,0,-3.8456,-3.8439,-3.8459,-3.8411,-3.8435,-3.8366,-3.8398,-3.8367,-3.834,-3.8337,-3.8338,-3.839,-3.841,-3.8435,-3.8553,-3.8565,0,0,0,-3.849,-3.8504,-3.8504,-3.8501,-3.8478,-3.846,-3.8421,-3.8409,-3.8405,-3.8344,-3.8406,-3.8417,-3.8431,-3.8443,-3.8453,-3.8462,-3.8341,-3.834,-3.834,-3.8623,-3.8585,-3.8615,-3.8573,-3.8571,-3.8529,-3.8523,-3.8499,-3.8463,-3.8478,-3.8477,-3.8553,-3.8569,-3.8576,-3.8586,-3.849,-3.849,-3.8491,-3.8491,-3.8714,-3.8728,-3.8677,-3.8689,-3.8648,-3.8657,-3.8617,-3.8591,-3.8592,-3.8552,-3.8562,-3.8519,-3.8591,-3.8597,-3.8495,-3.8494,-3.8493,-3.8493,-3.8493,-3.8796,-3.8795,-3.878,-3.877,-3.8767,-3.8722,-3.8725,-3.8688,-3.8654,-3.8664,-3.8657,-3.8656,-3.8648,-3.8664,-3.8664,-3.8664,-3.8664,-3.8664,-3.8665,-3.8886,-3.8866,-3.8874,-3.8852,-3.8843,-3.8828,-3.8786,-3.8776,-3.8756,-3.8729,-3.8729,-3.8689,-3.8605,-3.8584,-3.8669,-3.8668,-3.8667,-3.8667,-3.8667,-3.8989,-3.8959,-3.8971,-3.8963,-3.8932,-3.8929,-3.8883,-3.8866,-3.8853,-3.8855,-3.8814,-3.8758,-3.8738,-3.8729,-3.8711,-3.8823,-3.8823,-3.8823,-3.8823,-3.9056,-3.9043,-3.9044,-3.9033,-3.9019,-3.8977,-3.8988,-3.8955,-3.8916,-3.8905,-3.8884,-3.8857,-3.885,-3.8833,-3.8823,-3.8805,-3.8939,-3.8939,-3.8939,-3.9116,-3.9099,-3.9117,-3.9079,-3.9052,-3.9029,-3.9038,-3.9026,-3.8975,-3.8943,-3.8895,-3.889,-3.8846,-3.8835,-3.88,-3.8784,-3.8751,0,0]}]]